C/2003 K1 (Spacewatch)                                                

T 2002 Dec. 21.58214 TT                                 Nakano

q   2.0895280            (2000.0)            P               Q

z  +0.0215121      Peri.  314.64603     +0.18927861     -0.66605051

 +/-0.0013629      Node   250.07080     -0.53158026     -0.68729426

e   0.9550498      Incl.  129.87447     -0.82558830     +0.28983326

P 317 years

From 49 observations 2003 May 23-June 20.

Residuals in seconds of arc 

2003/                     030524 246  0.3+  0.6-    030601 360  1.1-  0.2-  

030523 691  0.8-  0.3-    030524 246  0.5+  1.0+    030601 360  0.6-  0.5+  

030523 691  0.0   0.2-    030524 246  0.5-  0.6+    030601 360  0.5-  0.3-  

030523 691  0.6-  0.2+    030524 246  0.3+  0.1+    030601 246  0.3+  0.8+  

030523 176  0.3+  0.9+    030524 246  0.3+  0.5+    030601 246  0.8+  0.1-  

030523 176  0.1+  0.3+    030525 J95  0.0   0.6+    030601 246  0.6+  0.3+  

030523 176  0.2+  0.3-    030525 J95  0.0   0.2+    030601 246  0.0   0.1-  

030523 176  0.2+  0.9-    030526 J95 (0.6+  2.2+)   030601 246  0.1+  0.6+  

030523 176  0.1+  1.5-    030526 J95  0.8+  1.4+    030601 246  0.6-  0.4-  

030524 926  0.0   0.9+    030530 170 (2.5+  0.4-)   030605 360  0.6-  0.8-  

030524 926  0.3-  0.8-    030530 170 (2.4+  0.5-)   030605 360  0.7-  0.1+  

030524 926  0.2+  0.7-    030530 246  1.2+  0.6+    030605 360  0.0   0.1+  

030524 291  0.5-  0.1+    030530 246  0.1+  0.8-    030605 360  0.1-  0.1+  

030524 291  0.4-  0.0     030530 246  1.0+  0.5+    030619 620  0.2+  0.4-  

030524 291  0.7-  0.3+    030530 246  0.8-  1.2-    030619 620  0.5+  0.5-  

030524 691  0.5+  0.3-    030530 246  0.1+  0.0     030620 360  0.5-  0.7+  

030524 691  0.1+  0.5+    030530 246  0.8-  1.0-    030620 360  0.1+  0.4+  

030524 246  0.3+  0.6-    030530 246  0.6+  0.5-                            

NAKANO

         **** Don't distribute anyone except personal use only ****

                (C) Copyright 2003 OAA/ComputingSection

write mail from CFAD0::NAKANO on 2003-10-19 02:58:01(JST).

 



    C/2003 K1 (Spacewatch)                                                

T 2002 Dec. 25.53557 TT                                 Nakano

q   2.1154950            (2000.0)            P               Q

                   Peri.  316.32402     +0.17523560     -0.67375371

                   Node   250.21205     -0.55348775     -0.67044128

e   1.0            Incl.  130.27708     -0.81421361     +0.31074818

From 45 observations 2003 May 23-June 5.



NAKANO

         **** Don't distribute anyone except personal use only ****

                (C) Copyright 2003 OAA/ComputingSection

write mail from CFAD0::NAKANO on 2003-06-18 05:56:37(JST).

 

◎C/2003 K1の軌道と予報位置です



 久万の中村彰正氏によると,CCD全光度は,6月1日に19.1等,5日に

19.2等でした.



    C/2003 K1 (Spacewatch)                                                

T 2002 Dec. 25.53557 TT                                 Nakano

q   2.1154950            (2000.0)            P               Q

                   Peri.  316.32402     +0.17523560     -0.67375371

                   Node   250.21205     -0.55348775     -0.67044128

e   1.0            Incl.  130.27708     -0.81421361     +0.31074818

From 45 observations 2003 May 23-June 5.

 

Date/        TT  R.A.(2000) Decl.     Delta   r     Daily motion  Mag.  Moon Age

              h    h  m       。  ,                      ,  / PA 。  m1      。

2003 June  5 12  15 34.24  -00 06.7   1.890  2.818    43.0 / 299  18.9   94  .26

           6 12  15 31.74  +00 14.3   1.906  2.826    42.1 / 299  18.9   81  .35

           7 12  15 29.28  +00 34.8   1.922  2.833    41.1 / 299  18.9   67  .46

           8 12  15 26.89  +00 54.7   1.939  2.840    40.1 / 299  19.0   54  .57

           9 12  15 24.54  +01 14.0   1.956  2.847    39.2 / 299  19.0   41  .68

          10 12  15 22.25  +01 32.9   1.974  2.855    38.2 / 299  19.0   28  .79

          11 12  15 20.01  +01 51.1   1.992  2.862    37.2 / 298  19.1   19  .88

          12 12  15 17.83  +02 08.9   2.010  2.869    36.2 / 298  19.1   20  .94

          13 12  15 15.70  +02 26.1   2.029  2.877    35.3 / 298  19.1   30  .99

          14 12  15 13.63  +02 42.7   2.049  2.884    34.3 / 298  19.2   44 1.00

          15 12  15 11.61  +02 58.9   2.068  2.892    33.3 / 298  19.2   57  .98

          16 12  15 09.64  +03 14.5   2.089  2.899    32.4 / 298  19.2   71  .94

          17 12  15 07.73  +03 29.6   2.109  2.906    31.5 / 298  19.3   85  .88

          18 12  15 05.87  +03 44.2   2.130  2.914    30.5 / 298  19.3   99  .80

          19 12  15 04.06  +03 58.4   2.151  2.921    29.6 / 297  19.3  111  .71

          20 12  15 02.30  +04 12.0   2.173  2.929    28.7 / 297  19.4  124  .61

          21 12  15 00.60  +04 25.2   2.194  2.936    27.8 / 297  19.4  135  .51

          22 12  14 58.95  +04 37.9   2.217  2.944    26.9 / 297  19.4  146  .41

          23 12  14 57.34  +04 50.1   2.239  2.951    26.0 / 297  19.5  155  .32

          24 12  14 55.79  +05 01.9   2.262  2.959    25.2 / 297  19.5  161  .24

          25 12  14 54.29  +05 13.3   2.285  2.966    24.3 / 297  19.5  159  .16

          26 12  14 52.83  +05 24.2   2.308  2.974    23.5 / 297  19.5  152  .10

          27 12  14 51.42  +05 34.7   2.331  2.982    22.7 / 297  19.6  142  .05

          28 12  14 50.06  +05 44.9   2.355  2.989    21.9 / 296  19.6  131  .02

          29 12  14 48.75  +05 54.6   2.379  2.997    21.1 / 296  19.6  120  .00

          30 12  14 47.48  +06 03.9   2.403  3.004    20.3 / 296  19.7  108  .01

     July  1 12  14 46.26  +06 12.9   2.427  3.012    19.6 / 296  19.7   96  .03

           2 12  14 45.08  +06 21.5   2.451  3.020    18.9 / 296  19.7   83  .08

           3 12  14 43.94  +06 29.8   2.476  3.027    18.1 / 296  19.8   70  .14

           4 12  14 42.84  +06 37.7   2.500  3.035    17.4 / 296  19.8   58  .23

           5 12  14 41.79  +06 45.3   2.525  3.043    16.7 / 296  19.8   45  .32

NAKANO

         **** Don't distribute anyone except personal use only ****

                (C) Copyright 2003 OAA/ComputingSection

write mail from CFAD0::NAKANO on 2003-06-07 04:50:44(JST).

 

戻ります。